TimeEDT,TemperatureF,Dew PointF,Humidity,Sea Level PressureIn,VisibilityMPH,Wind Direction,Wind SpeedMPH,Gust SpeedMPH,PrecipitationIn,Events,Conditions,WindDirDegrees,DateUTC
12:15 AM,66.2,66.2,100,30.12,1.8,Calm,Calm,-,0.00,Rain,Light Rain,0,2012-10-04 04:15:00
12:23 AM,66.2,66.2,100,30.13,1.2,Calm,Calm,-,0.00,,Clear,0,2012-10-04 04:23:00
12:27 AM,66.2,64.4,94,30.13,2.0,Calm,Calm,-,0.00,,Clear,0,2012-10-04 04:27:00
12:35 AM,66.2,66.2,100,30.13,3.0,Calm,Calm,-,0.00,,Clear,0,2012-10-04 04:35:00
12:44 AM,66.2,66.2,100,30.13,2.5,Calm,Calm,-,0.00,,Clear,0,2012-10-04 04:44:00
12:52 AM,66.2,66.2,100,30.13,4.0,Calm,Calm,-,0.00,,Clear,0,2012-10-04 04:52:00
12:56 AM,66.9,66.0,97,30.13,4.0,Calm,Calm,-,0.00,,Clear,0,2012-10-04 04:56:00
1:56 AM,66.0,66.0,100,30.14,4.0,Calm,Calm,-,0.00,Rain,Light Rain,0,2012-10-04 05:56:00
2:51 AM,66.2,66.2,100,30.12,3.0,Calm,Calm,-,0.00,Rain,Light Rain,0,2012-10-04 06:51:00
2:56 AM,66.0,66.0,100,30.12,2.5,Calm,Calm,-,0.00,Rain,Light Rain,0,2012-10-04 06:56:00
3:23 AM,66.2,64.4,94,30.12,1.8,Calm,Calm,-,N/A,,Mostly Cloudy,0,2012-10-04 07:23:00
3:29 AM,66.2,66.2,100,30.12,2.0,Calm,Calm,-,N/A,,Mostly Cloudy,0,2012-10-04 07:29:00
3:42 AM,66.2,66.2,100,30.11,3.0,ESE,3.5,-,N/A,,Mostly Cloudy,120,2012-10-04 07:42:00
3:56 AM,66.9,66.0,97,30.12,3.0,Calm,Calm,-,N/A,,Mostly Cloudy,0,2012-10-04 07:56:00
4:44 AM,66.2,66.2,100,30.13,2.5,Calm,Calm,-,0.00,,Overcast,0,2012-10-04 08:44:00
4:56 AM,66.9,66.0,97,30.12,2.0,Calm,Calm,-,0.00,,Overcast,0,2012-10-04 08:56:00
5:03 AM,66.2,66.2,100,30.12,1.8,Calm,Calm,-,N/A,,Overcast,0,2012-10-04 09:03:00
5:29 AM,66.2,66.2,100,30.13,2.5,Calm,Calm,-,N/A,,Overcast,0,2012-10-04 09:29:00
5:33 AM,66.2,66.2,100,30.13,3.0,Calm,Calm,-,N/A,,Overcast,0,2012-10-04 09:33:00
5:45 AM,66.2,66.2,100,30.14,2.0,Calm,Calm,-,0.01,Rain,Light Rain,0,2012-10-04 09:45:00
5:56 AM,66.9,66.0,97,30.14,2.5,Calm,Calm,-,0.01,Rain,Light Rain,0,2012-10-04 09:56:00
6:08 AM,66.2,66.2,100,30.14,3.0,Calm,Calm,-,0.00,Rain,Light Rain,0,2012-10-04 10:08:00
6:27 AM,66.2,66.2,100,30.13,4.0,Calm,Calm,-,0.01,Rain,Light Rain,0,2012-10-04 10:27:00
6:47 AM,66.2,66.2,100,30.12,2.0,Calm,Calm,-,0.01,Rain,Light Rain,0,2012-10-04 10:47:00
6:56 AM,66.9,66.0,97,30.12,2.0,Calm,Calm,-,0.01,Rain,Light Rain,0,2012-10-04 10:56:00
7:13 AM,66.2,66.2,100,30.11,1.0,Calm,Calm,-,0.00,Rain,Light Rain,0,2012-10-04 11:13:00
7:28 AM,66.2,66.2,100,30.09,0.2,East,3.5,-,0.00,Fog,Fog,100,2012-10-04 11:28:00
7:38 AM,66.2,66.2,100,30.11,1.5,SSW,3.5,-,0.00,,Overcast,200,2012-10-04 11:38:00
7:46 AM,66.2,66.2,100,30.14,2.0,West,6.9,-,0.00,Rain,Light Rain,260,2012-10-04 11:46:00
7:56 AM,66.9,66.0,97,30.14,2.0,West,4.6,-,0.00,Rain,Light Rain,260,2012-10-04 11:56:00
8:03 AM,66.2,66.2,100,30.14,1.8,West,4.6,-,N/A,,Overcast,280,2012-10-04 12:03:00
8:21 AM,66.2,66.2,100,30.13,2.0,Calm,Calm,-,N/A,,Overcast,0,2012-10-04 12:21:00
8:31 AM,66.2,66.2,100,30.13,1.8,Calm,Calm,-,N/A,,Overcast,0,2012-10-04 12:31:00
8:56 AM,68.0,66.0,93,30.13,1.5,NW,3.5,-,0.00,Rain,Light Rain,320,2012-10-04 12:56:00
9:32 AM,68.0,66.2,94,30.12,1.8,East,3.5,-,0.00,,Overcast,100,2012-10-04 13:32:00
9:56 AM,69.1,66.9,93,30.13,1.8,Calm,Calm,-,0.00,,Overcast,0,2012-10-04 13:56:00
10:11 AM,69.8,66.2,88,30.12,2.0,North,3.5,-,N/A,,Overcast,350,2012-10-04 14:11:00
10:28 AM,69.8,66.2,88,30.13,2.0,Calm,Calm,-,N/A,,Overcast,0,2012-10-04 14:28:00
10:39 AM,69.8,66.2,88,30.14,2.5,Calm,Calm,-,N/A,,Overcast,0,2012-10-04 14:39:00
10:56 AM,70.0,68.0,93,30.13,2.5,Calm,Calm,-,N/A,,Overcast,0,2012-10-04 14:56:00
11:07 AM,69.8,66.2,88,30.13,3.0,NNW,4.6,-,N/A,,Overcast,330,2012-10-04 15:07:00
11:56 AM,70.0,66.9,90,30.14,4.0,West,5.8,-,0.00,Rain,Light Rain,280,2012-10-04 15:56:00
12:02 PM,69.8,66.2,88,30.14,2.5,WNW,4.6,-,0.00,Rain,Light Rain,290,2012-10-04 16:02:00
12:22 PM,71.6,68.0,88,30.13,3.0,NNW,3.5,-,0.02,Rain,Light Rain,340,2012-10-04 16:22:00
12:42 PM,71.6,68.0,88,30.14,3.0,WNW,4.6,-,0.02,,Mostly Cloudy,300,2012-10-04 16:42:00
12:49 PM,71.6,66.2,83,30.14,3.0,NW,9.2,-,0.02,,Mostly Cloudy,310,2012-10-04 16:49:00
12:56 PM,71.1,66.9,87,30.14,10.0,NW,5.8,-,0.02,,Mostly Cloudy,320,2012-10-04 16:56:00
1:56 PM,71.1,66.0,84,30.11,10.0,NW,4.6,-,N/A,,Mostly Cloudy,310,2012-10-04 17:56:00
2:56 PM,73.9,66.0,76,30.09,10.0,NE,4.6,-,N/A,,Scattered Clouds,40,2012-10-04 18:56:00
3:56 PM,77.0,59.0,54,30.09,10.0,WNW,9.2,-,N/A,,Partly Cloudy,300,2012-10-04 19:56:00
4:56 PM,75.9,57.9,54,30.09,10.0,NNW,4.6,-,N/A,,Scattered Clouds,340,2012-10-04 20:56:00
5:56 PM,75.0,57.0,53,30.09,10.0,WNW,5.8,-,N/A,,Partly Cloudy,290,2012-10-04 21:56:00
6:56 PM,66.0,61.0,84,30.09,10.0,SW,3.5,-,N/A,,Clear,220,2012-10-04 22:56:00
7:56 PM,63.0,59.0,87,30.10,10.0,WSW,3.5,-,N/A,,Clear,240,2012-10-04 23:56:00
8:56 PM,63.0,57.9,84,30.11,10.0,West,5.8,-,N/A,,Clear,260,2012-10-05 00:56:00
10:56 PM,63.0,55.0,75,30.12,10.0,WNW,4.6,-,N/A,,Clear,290,2012-10-05 02:56:00
11:56 PM,61.0,54.0,78,30.12,10.0,Calm,Calm,-,N/A,,Clear,0,2012-10-05 03:56:00